Location: Chippewa Lake
(41.0698°N, 81.9010°W)
Time: 01:10:52
(UTC+00:00)

Cosmos 1470 Rocket - Pass Details

Date: 09 May 2021
Orbit: 603 x 634 km, 82.5° (Epoch: 24 June)

Event Time Altitude Azimuth Distance (km) Brightness Sun altitude
Rises 02:24:12 0° 360° (N) 2,935 7.7 -18.2°
Reaches altitude 10° 02:26:34 10° 8° (N) 2,025 6.7 -18.5°
Maximum altitude 02:30:47 39° 77° (ENE) 953 4.2 -19.1°
Enters shadow 02:31:28 37° 100° (E) 994 4.2 -19.2°
